Regional Weather Roundup
Issued by NWS

Home | Current Version | Previous Version | Text Only | Print | Product List | Glossary Off
Versions: 1 2 3 4 5 6 7 8 9 10 11 12 13 14 15 16 17 18 19 20 21 22 23 24 25 26 27 28 29 30 31 32 33 34 35 36 37 38 39 40 41 42 43 44 45 46 47 48 49 50

000
ASUS43 KLMK 231902
RWRKY
KENTUCKY REGIONAL WEATHER ROUNDUP
NATIONAL WEATHER SERVICE LOUISVILLE KY
300 PM EDT WED APR 23 2014

NOTE "FAIR" INDICATES FEW OR NO CLOUDS BELOW 12,000 FEET
WITH NO SIGNIFICANT WEATHER AND/OR OBSTRUCTIONS TO VISIBILITY.

KYZ001>023-026-027-061>063-070>075-232000-
WESTERN AND SOUTH CENTRAL KENTUCKY

CITY           SKY/WX    TMP DP  RH WIND       PRES   REMARKS
PADUCAH        SUNNY     69  38  32 NE10      30.05F
HENDERSON      SUNNY     59  30  33 E3        30.07F
OWENSBORO      SUNNY     60  30  32 VRB7      30.07F
HOPKINSVILLE   SUNNY     64  35  33 N5        30.05F
BOWLING GREEN  SUNNY     64  26  23 W3        30.05F
GLASGOW        NOT AVBL
$$

KYZ024-025-028>034-038-045-046-053-232000-
NORTH CENTRAL KENTUCKY

CITY           SKY/WX    TMP DP  RH WIND       PRES   REMARKS
LOUISVILLE/SDF MOSUNNY   61  31  32 VRB7      30.08S
LOUISVILLE/LOU SUNNY     61  32  33 CALM      30.08F
FORT KNOX      SUNNY     61  31  32 N10       30.06F
$$

KYZ035>037-039>044-047>052-055>060-089>105-232000-
NORTHEAST KENTUCKY

CITY           SKY/WX    TMP DP  RH WIND       PRES   REMARKS
LEXINGTON      SUNNY     58  34  40 N9        30.07F
COVINGTON      MOSUNNY   58  30  34 N8        30.08S
FRANKFORT      SUNNY     58  29  33 VRB6      30.06F
$$

KYZ054-064>069-076>088-106>120-232000-
SOUTHEAST KENTUCKY

CITY           SKY/WX    TMP DP  RH WIND       PRES   REMARKS
JACKSON        SUNNY     62  29  28 VRB3      30.03F
LONDON         SUNNY     64  30  27 VRB3      30.03F
SOMERSET       NOT AVBL
MIDDLESBORO    NOT AVBL
MONTICELLO     CLEAR     63  31  30 VRB6      30.05F
$$




USA.gov is the U.S. government's official web portal to all federal, state and local government web resources and services.